Time,TemperatureF,DewpointF,PressureIn,WindDirection,WindDirectionDegrees,WindSpeedMPH,WindSpeedGustMPH,Humidity,HourlyPrecipIn,Conditions,Clouds,dailyrainin,SoftwareType,DateUTC
2013-08-13 00:01:00,-999.0,-99.9,29.92,North,-999,-999.0,0.0,-999,0.00,,,0.00,WeatherCatV1.01B143,2013-08-13 04:01:00,
2013-08-13 00:06:00,-999.0,-99.9,29.92,North,-999,-999.0,0.0,-999,0.00,,,0.00,WeatherCatV1.01B143,2013-08-13 04:06:00,
2013-08-13 00:11:00,-999.0,-99.9,29.92,North,-999,-999.0,0.0,-999,0.00,,,0.00,WeatherCatV1.01B143,2013-08-13 04:11:00,
2013-08-13 00:16:00,-999.0,-99.9,29.92,North,-999,-999.0,0.0,-999,0.00,,,0.00,WeatherCatV1.01B143,2013-08-13 04:16:00,
2013-08-13 00:21:00,-999.0,-99.9,29.92,North,-999,-999.0,0.0,-999,0.00,,,0.00,WeatherCatV1.01B143,2013-08-13 04:21:00,
2013-08-13 00:26:00,-999.0,-99.9,29.92,North,-999,-999.0,0.0,-999,0.00,,,0.00,WeatherCatV1.01B143,2013-08-13 04:26:00,
2013-08-13 00:31:00,-999.0,-99.9,29.91,North,-999,-999.0,0.0,-999,0.00,,,0.00,WeatherCatV1.01B143,2013-08-13 04:31:00,
2013-08-13 00:36:00,-999.0,-99.9,29.91,North,-999,-999.0,0.0,-999,0.00,,,0.00,WeatherCatV1.01B143,2013-08-13 04:36:00,
2013-08-13 00:41:00,-999.0,-99.9,29.91,North,-999,-999.0,0.0,-999,0.00,,,0.00,WeatherCatV1.01B143,2013-08-13 04:41:00,
2013-08-13 00:46:00,-999.0,-99.9,29.91,North,-999,-999.0,0.0,-999,0.00,,,0.00,WeatherCatV1.01B143,2013-08-13 04:46:00,
2013-08-13 00:51:00,-999.0,-99.9,29.91,North,-999,-999.0,0.0,-999,0.00,,,0.00,WeatherCatV1.01B143,2013-08-13 04:51:00,
2013-08-13 00:56:00,-999.0,-99.9,29.91,North,-999,-999.0,0.0,-999,0.00,,,0.00,WeatherCatV1.01B143,2013-08-13 04:56:00,
2013-08-13 01:01:00,-999.0,-99.9,29.91,North,-999,-999.0,0.0,-999,0.00,,,0.00,WeatherCatV1.01B143,2013-08-13 05:01:00,
2013-08-13 01:06:00,-999.0,-99.9,29.91,North,-999,-999.0,0.0,-999,0.00,,,0.00,WeatherCatV1.01B143,2013-08-13 05:06:00,
2013-08-13 01:11:00,-999.0,-99.9,29.91,North,-999,-999.0,0.0,-999,0.00,,,0.00,WeatherCatV1.01B143,2013-08-13 05:11:00,
2013-08-13 01:16:00,-999.0,-99.9,29.91,North,-999,-999.0,0.0,-999,0.00,,,0.00,WeatherCatV1.01B143,2013-08-13 05:16:00,
2013-08-13 01:21:00,-999.0,-99.9,29.91,North,-999,-999.0,0.0,-999,0.00,,,0.00,WeatherCatV1.01B143,2013-08-13 05:21:00,
2013-08-13 01:26:00,-999.0,-99.9,29.91,North,-999,-999.0,0.0,-999,0.00,,,0.00,WeatherCatV1.01B143,2013-08-13 05:26:00,
2013-08-13 01:31:00,-999.0,-99.9,29.90,North,-999,-999.0,0.0,-999,0.00,,,0.00,WeatherCatV1.01B143,2013-08-13 05:31:00,
2013-08-13 01:36:00,-999.0,-99.9,29.90,North,-999,-999.0,0.0,-999,0.00,,,0.00,WeatherCatV1.01B143,2013-08-13 05:36:00,
2013-08-13 01:41:00,-999.0,-99.9,29.90,North,-999,-999.0,0.0,-999,0.00,,,0.00,WeatherCatV1.01B143,2013-08-13 05:41:00,
2013-08-13 01:44:00,-999.0,-99.9,29.90,North,-999,-999.0,0.0,-999,0.00,,,0.00,WeatherCatV1.01B143,2013-08-13 05:44:00,
2013-08-13 01:49:00,-999.0,-99.9,29.90,North,-999,-999.0,0.0,-999,0.00,,,0.00,WeatherCatV1.01B143,2013-08-13 05:49:00,
2013-08-13 01:54:00,-999.0,-99.9,29.90,North,-999,-999.0,0.0,-999,0.00,,,0.00,WeatherCatV1.01B143,2013-08-13 05:54:00,
2013-08-13 01:59:00,-999.0,-99.9,29.89,North,-999,-999.0,0.0,-999,0.00,,,0.00,WeatherCatV1.01B143,2013-08-13 05:59:00,
2013-08-13 02:04:00,-999.0,-99.9,29.89,North,-999,-999.0,0.0,-999,0.00,,,0.00,WeatherCatV1.01B143,2013-08-13 06:04:00,
2013-08-13 02:09:00,-999.0,-99.9,29.90,North,-999,-999.0,0.0,-999,0.00,,,0.00,WeatherCatV1.01B143,2013-08-13 06:09:00,
2013-08-13 02:14:00,-999.0,-99.9,29.89,North,-999,-999.0,0.0,-999,0.00,,,0.00,WeatherCatV1.01B143,2013-08-13 06:14:00,
2013-08-13 02:19:00,-999.0,-99.9,29.89,North,-999,-999.0,0.0,-999,0.00,,,0.00,WeatherCatV1.01B143,2013-08-13 06:19:00,
2013-08-13 02:24:00,-999.0,-99.9,29.88,North,-999,-999.0,0.0,-999,0.00,,,0.00,WeatherCatV1.01B143,2013-08-13 06:24:00,
2013-08-13 02:29:00,-999.0,-99.9,29.89,North,-999,-999.0,0.0,-999,0.00,,,0.00,WeatherCatV1.01B143,2013-08-13 06:29:00,
2013-08-13 02:34:00,-999.0,-99.9,29.88,North,-999,-999.0,0.0,-999,0.00,,,0.00,WeatherCatV1.01B143,2013-08-13 06:34:00,
2013-08-13 02:39:00,-999.0,-99.9,29.88,North,-999,-999.0,0.0,-999,0.00,,,0.00,WeatherCatV1.01B143,2013-08-13 06:39:00,
2013-08-13 02:44:00,-999.0,-99.9,29.88,North,-999,-999.0,0.0,-999,0.00,,,0.00,WeatherCatV1.01B143,2013-08-13 06:44:00,
2013-08-13 02:49:00,-999.0,-99.9,29.88,North,-999,-999.0,0.0,-999,0.00,,,0.00,WeatherCatV1.01B143,2013-08-13 06:49:00,
2013-08-13 02:54:00,-999.0,-99.9,29.88,North,-999,-999.0,0.0,-999,0.00,,,0.00,WeatherCatV1.01B143,2013-08-13 06:54:00,
2013-08-13 02:59:00,-999.0,-99.9,29.88,North,-999,-999.0,0.0,-999,0.00,,,0.00,WeatherCatV1.01B143,2013-08-13 06:59:00,
2013-08-13 03:04:00,-999.0,-99.9,29.88,North,-999,-999.0,0.0,-999,0.00,,,0.00,WeatherCatV1.01B143,2013-08-13 07:04:00,
2013-08-13 03:09:00,-999.0,-99.9,29.88,North,-999,-999.0,0.0,-999,0.00,,,0.00,WeatherCatV1.01B143,2013-08-13 07:09:00,
2013-08-13 03:14:00,-999.0,-99.9,29.88,North,-999,-999.0,0.0,-999,0.00,,,0.00,WeatherCatV1.01B143,2013-08-13 07:14:00,
2013-08-13 03:19:00,-999.0,-99.9,29.88,North,-999,-999.0,0.0,-999,0.00,,,0.00,WeatherCatV1.01B143,2013-08-13 07:19:00,
2013-08-13 03:24:00,-999.0,-99.9,29.87,North,-999,-999.0,0.0,-999,0.00,,,0.00,WeatherCatV1.01B143,2013-08-13 07:24:00,
2013-08-13 03:29:00,-999.0,-99.9,29.88,North,-999,-999.0,0.0,-999,0.00,,,0.00,WeatherCatV1.01B143,2013-08-13 07:29:00,
2013-08-13 03:34:00,65.2,-7.4,29.87,WNW,302,0.0,0.0,5,0.00,,,0.00,WeatherCatV1.01B143,2013-08-13 07:34:00,
2013-08-13 03:39:00,65.1,-7.5,29.87,WNW,302,0.0,0.0,5,0.00,,,0.00,WeatherCatV1.01B143,2013-08-13 07:39:00,
2013-08-13 03:44:00,65.2,-7.4,29.87,WNW,301,0.0,0.0,5,0.00,,,0.00,WeatherCatV1.01B143,2013-08-13 07:44:00,
2013-08-13 03:49:00,64.9,-7.6,29.87,North,3,0.0,0.0,5,0.00,,,0.00,WeatherCatV1.01B143,2013-08-13 07:49:00,
2013-08-13 03:54:00,64.5,-7.9,29.87,NNE,24,0.0,0.0,5,0.00,,,0.00,WeatherCatV1.01B143,2013-08-13 07:54:00,
2013-08-13 03:59:00,64.6,-7.8,29.87,NNE,23,0.0,0.0,5,0.00,,,0.00,WeatherCatV1.01B143,2013-08-13 07:59:00,
2013-08-13 04:04:00,64.5,-7.9,29.87,NNE,23,0.0,0.0,5,0.00,,,0.00,WeatherCatV1.01B143,2013-08-13 08:04:00,
2013-08-13 04:09:00,64.3,-8.1,29.87,NNE,24,0.0,0.0,5,0.00,,,0.00,WeatherCatV1.01B143,2013-08-13 08:09:00,
2013-08-13 04:14:00,63.7,-8.5,29.86,NNE,23,0.0,0.0,5,0.00,,,0.00,WeatherCatV1.01B143,2013-08-13 08:14:00,
2013-08-13 04:19:00,63.7,-8.5,29.86,NNE,23,0.0,0.0,5,0.00,,,0.00,WeatherCatV1.01B143,2013-08-13 08:19:00,
2013-08-13 04:24:00,-999.0,-99.9,29.86,North,-999,-999.0,0.0,-999,0.00,,,0.00,WeatherCatV1.01B143,2013-08-13 08:24:00,
2013-08-13 04:29:00,-999.0,-99.9,29.86,North,-999,-999.0,0.0,-999,0.00,,,0.00,WeatherCatV1.01B143,2013-08-13 08:29:00,
2013-08-13 04:34:00,-999.0,-99.9,29.86,North,-999,-999.0,0.0,-999,0.00,,,0.00,WeatherCatV1.01B143,2013-08-13 08:34:00,
2013-08-13 04:39:00,-999.0,-99.9,29.86,North,-999,-999.0,0.0,-999,0.00,,,0.00,WeatherCatV1.01B143,2013-08-13 08:39:00,
2013-08-13 04:44:00,-999.0,-99.9,29.86,North,-999,-999.0,0.0,-999,0.00,,,0.00,WeatherCatV1.01B143,2013-08-13 08:44:00,
2013-08-13 04:49:00,-999.0,-99.9,29.86,North,-999,-999.0,0.0,-999,0.00,,,0.00,WeatherCatV1.01B143,2013-08-13 08:49:00,
2013-08-13 04:54:00,-999.0,-99.9,29.86,North,-999,-999.0,0.0,-999,0.00,,,0.00,WeatherCatV1.01B143,2013-08-13 08:54:00,
2013-08-13 04:59:00,-999.0,-99.9,29.86,North,-999,-999.0,0.0,-999,0.00,,,0.00,WeatherCatV1.01B143,2013-08-13 08:59:00,
2013-08-13 05:04:00,-999.0,-99.9,29.86,North,-999,-999.0,0.0,-999,0.00,,,0.00,WeatherCatV1.01B143,2013-08-13 09:04:00,
2013-08-13 05:09:00,-999.0,-99.9,29.86,North,-999,-999.0,0.0,-999,0.00,,,0.00,WeatherCatV1.01B143,2013-08-13 09:09:00,
2013-08-13 05:14:00,-999.0,-99.9,29.86,North,-999,-999.0,0.0,-999,0.00,,,0.00,WeatherCatV1.01B143,2013-08-13 09:14:00,
2013-08-13 05:19:00,-999.0,-99.9,29.86,North,-999,-999.0,0.0,-999,0.00,,,0.00,WeatherCatV1.01B143,2013-08-13 09:19:00,
2013-08-13 05:24:00,-999.0,-99.9,29.85,North,-999,-999.0,0.0,-999,0.00,,,0.00,WeatherCatV1.01B143,2013-08-13 09:24:00,
2013-08-13 05:29:00,-999.0,-99.9,29.86,North,-999,-999.0,0.0,-999,0.00,,,0.00,WeatherCatV1.01B143,2013-08-13 09:29:00,
2013-08-13 05:34:00,-999.0,-99.9,29.86,North,-999,-999.0,0.0,-999,0.00,,,0.00,WeatherCatV1.01B143,2013-08-13 09:34:00,
2013-08-13 05:39:00,-999.0,-99.9,29.85,North,-999,-999.0,0.0,-999,0.00,,,0.00,WeatherCatV1.01B143,2013-08-13 09:39:00,
2013-08-13 05:44:00,-999.0,-99.9,29.85,North,-999,-999.0,0.0,-999,0.00,,,0.00,WeatherCatV1.01B143,2013-08-13 09:44:00,
2013-08-13 05:49:00,-999.0,-99.9,29.85,North,-999,-999.0,0.0,-999,0.00,,,0.00,WeatherCatV1.01B143,2013-08-13 09:49:00,
2013-08-13 05:54:00,-999.0,-99.9,29.85,North,-999,-999.0,0.0,-999,0.00,,,0.00,WeatherCatV1.01B143,2013-08-13 09:54:00,
2013-08-13 05:59:00,-999.0,-99.9,29.85,North,-999,-999.0,0.0,-999,0.00,,,0.00,WeatherCatV1.01B143,2013-08-13 09:59:00,
2013-08-13 06:04:00,-999.0,-99.9,29.85,North,-999,-999.0,0.0,-999,0.00,,,0.00,WeatherCatV1.01B143,2013-08-13 10:04:00,
2013-08-13 06:09:00,-999.0,-99.9,29.85,North,-999,-999.0,0.0,-999,0.00,,,0.00,WeatherCatV1.01B143,2013-08-13 10:09:00,
2013-08-13 06:14:00,-999.0,-99.9,29.85,North,-999,-999.0,0.0,-999,0.00,,,0.00,WeatherCatV1.01B143,2013-08-13 10:14:00,
2013-08-13 06:19:00,-999.0,-99.9,29.85,North,-999,-999.0,0.0,-999,0.00,,,0.00,WeatherCatV1.01B143,2013-08-13 10:19:00,
2013-08-13 06:24:00,-999.0,-99.9,29.85,North,-999,-999.0,0.0,-999,0.00,,,0.00,WeatherCatV1.01B143,2013-08-13 10:24:00,
2013-08-13 06:29:00,-999.0,-99.9,29.85,North,-999,-999.0,0.0,-999,0.00,,,0.00,WeatherCatV1.01B143,2013-08-13 10:29:00,
2013-08-13 06:34:00,-999.0,-99.9,29.85,North,-999,-999.0,0.0,-999,0.00,,,0.00,WeatherCatV1.01B143,2013-08-13 10:34:00,
2013-08-13 06:39:00,-999.0,-99.9,29.85,North,-999,-999.0,0.0,-999,0.00,,,0.00,WeatherCatV1.01B143,2013-08-13 10:39:00,
2013-08-13 06:41:00,-999.0,-99.9,29.85,North,-999,-999.0,0.0,-999,0.00,,,0.00,WeatherCatV1.01B143,2013-08-13 10:41:00,
2013-08-13 06:46:00,65.3,-37.7,29.85,NNE,24,0.0,0.0,1,0.00,,,0.00,WeatherCatV1.01B143,2013-08-13 10:46:00,
2013-08-13 06:51:00,65.5,-99.9,29.85,NNE,23,0.0,0.0,1,0.00,,,0.00,WeatherCatV1.01B143,2013-08-13 10:51:00,
2013-08-13 06:56:00,65.8,-99.9,29.85,East,82,0.0,0.0,1,0.00,,,0.00,WeatherCatV1.01B143,2013-08-13 10:56:00,
2013-08-13 07:05:00,66.1,-99.9,29.85,East,98,0.0,0.0,1,0.00,,,0.01,WeatherCatV1.01B143,2013-08-13 11:05:00,
2013-08-13 07:10:00,66.2,-99.9,29.85,East,98,0.0,0.0,1,0.00,,,0.01,WeatherCatV1.01B143,2013-08-13 11:10:00,
2013-08-13 07:15:00,66.2,-99.9,29.85,East,98,0.0,0.0,1,0.00,,,0.01,WeatherCatV1.01B143,2013-08-13 11:15:00,
2013-08-13 07:20:00,66.3,-99.9,29.85,East,85,0.0,1.0,1,0.00,,,0.01,WeatherCatV1.01B143,2013-08-13 11:20:00,
2013-08-13 07:25:00,66.3,-99.9,29.85,East,97,0.0,0.0,1,0.00,,,0.01,WeatherCatV1.01B143,2013-08-13 11:25:00,
2013-08-13 07:30:00,66.2,-99.9,29.84,East,92,2.0,2.0,1,0.00,,,0.01,WeatherCatV1.01B143,2013-08-13 11:30:00,
2013-08-13 07:35:00,66.1,-99.9,29.84,East,100,3.0,3.0,1,0.00,,,0.01,WeatherCatV1.01B143,2013-08-13 11:35:00,
2013-08-13 07:40:00,66.1,-99.9,29.85,ESE,116,1.0,3.0,1,0.00,,,0.01,WeatherCatV1.01B143,2013-08-13 11:40:00,
2013-08-13 07:45:00,66.2,-99.9,29.84,East,96,3.0,4.0,1,0.00,,,0.01,WeatherCatV1.01B143,2013-08-13 11:45:00,
2013-08-13 07:50:00,66.4,-99.9,29.84,East,96,2.0,3.0,1,0.00,,,0.01,WeatherCatV1.01B143,2013-08-13 11:50:00,
2013-08-13 07:55:00,66.5,-99.9,29.84,ESE,103,1.0,2.0,1,0.00,,,0.01,WeatherCatV1.01B143,2013-08-13 11:55:00,
2013-08-13 08:00:00,66.6,-99.9,29.84,East,82,0.0,1.0,1,0.00,,,0.01,WeatherCatV1.01B143,2013-08-13 12:00:00,
2013-08-13 08:05:00,66.6,-99.9,29.84,East,100,0.0,1.0,1,0.00,,,0.01,WeatherCatV1.01B143,2013-08-13 12:05:00,
2013-08-13 08:10:00,66.7,-99.9,29.84,ENE,65,0.0,1.0,1,0.00,,,0.01,WeatherCatV1.01B143,2013-08-13 12:10:00,
2013-08-13 08:15:00,66.8,-99.9,29.84,ENE,74,0.0,0.0,1,0.00,,,0.01,WeatherCatV1.01B143,2013-08-13 12:15:00,
2013-08-13 08:20:00,66.9,-99.9,29.83,ENE,74,0.0,0.0,1,0.00,,,0.01,WeatherCatV1.01B143,2013-08-13 12:20:00,
2013-08-13 08:25:00,67.1,-99.9,29.83,East,84,0.0,0.0,1,0.00,,,0.01,WeatherCatV1.01B143,2013-08-13 12:25:00,
2013-08-13 08:30:00,67.1,-99.9,29.83,ENE,62,2.0,2.0,1,0.00,,,0.01,WeatherCatV1.01B143,2013-08-13 12:30:00,
2013-08-13 08:35:00,67.1,-99.9,29.83,ENE,76,1.0,2.0,1,0.00,,,0.01,WeatherCatV1.01B143,2013-08-13 12:35:00,
2013-08-13 08:40:00,67.1,-99.9,29.83,ENE,71,1.0,1.0,1,0.00,,,0.01,WeatherCatV1.01B143,2013-08-13 12:40:00,
2013-08-13 08:45:00,67.2,-99.9,29.83,NE,55,0.0,1.0,1,0.00,,,0.01,WeatherCatV1.01B143,2013-08-13 12:45:00,
2013-08-13 08:50:00,67.3,-99.9,29.82,ENE,67,0.0,1.0,1,0.00,,,0.01,WeatherCatV1.01B143,2013-08-13 12:50:00,
2013-08-13 08:55:00,67.4,-99.9,29.82,East,91,1.0,1.0,1,0.00,,,0.01,WeatherCatV1.01B143,2013-08-13 12:55:00,
2013-08-13 09:00:00,67.3,-99.9,29.83,East,84,0.0,1.0,1,0.00,,,0.01,WeatherCatV1.01B143,2013-08-13 13:00:00,
2013-08-13 09:06:00,67.3,-99.9,29.83,East,92,1.0,1.0,1,0.00,,,0.01,WeatherCatV1.01B143,2013-08-13 13:06:00,
2013-08-13 09:11:00,67.5,-99.9,29.83,ESE,123,0.0,1.0,1,0.00,,,0.01,WeatherCatV1.01B143,2013-08-13 13:11:00,
2013-08-13 09:16:00,67.7,-99.9,29.83,SE,143,0.0,1.0,1,0.00,,,0.01,WeatherCatV1.01B143,2013-08-13 13:16:00,
2013-08-13 09:21:00,68.0,-99.9,29.83,East,82,0.0,1.0,1,0.00,,,0.01,WeatherCatV1.01B143,2013-08-13 13:21:00,
2013-08-13 09:26:00,68.1,-99.9,29.83,East,82,0.0,0.0,1,0.00,,,0.01,WeatherCatV1.01B143,2013-08-13 13:26:00,
2013-08-13 09:31:00,68.2,-99.9,29.83,East,82,0.0,0.0,1,0.00,,,0.01,WeatherCatV1.01B143,2013-08-13 13:31:00,
2013-08-13 09:36:00,68.4,-99.9,29.83,East,82,0.0,0.0,1,0.00,,,0.01,WeatherCatV1.01B143,2013-08-13 13:36:00,
2013-08-13 09:41:00,68.7,-99.9,29.83,East,82,0.0,0.0,1,0.00,,,0.01,WeatherCatV1.01B143,2013-08-13 13:41:00,
2013-08-13 09:46:00,68.8,-99.9,29.83,East,82,0.0,0.0,1,0.00,,,0.01,WeatherCatV1.01B143,2013-08-13 13:46:00,
2013-08-13 09:51:00,68.7,-99.9,29.83,East,82,0.0,0.0,1,0.00,,,0.01,WeatherCatV1.01B143,2013-08-13 13:51:00,
2013-08-13 09:56:00,68.9,-99.9,29.83,East,82,0.0,0.0,1,0.00,,,0.01,WeatherCatV1.01B143,2013-08-13 13:56:00,
2013-08-13 10:01:00,69.0,-99.9,29.83,SW,214,0.0,0.0,1,0.00,,,0.01,WeatherCatV1.01B143,2013-08-13 14:01:00,
2013-08-13 10:06:00,68.9,-99.9,29.84,SW,214,0.0,0.0,1,0.00,,,0.01,WeatherCatV1.01B143,2013-08-13 14:06:00,
2013-08-13 10:11:00,68.9,-99.9,29.84,SW,214,0.0,0.0,1,0.00,,,0.01,WeatherCatV1.01B143,2013-08-13 14:11:00,
2013-08-13 10:16:00,69.0,-99.9,29.84,West,261,0.0,0.0,1,0.00,,,0.01,WeatherCatV1.01B143,2013-08-13 14:16:00,
2013-08-13 10:21:00,69.0,-99.9,29.84,WSW,247,0.0,0.0,1,0.00,,,0.01,WeatherCatV1.01B143,2013-08-13 14:21:00,
2013-08-13 10:26:00,69.2,-99.9,29.84,WSW,238,0.0,0.0,1,0.00,,,0.01,WeatherCatV1.01B143,2013-08-13 14:26:00,
2013-08-13 10:31:00,69.3,-99.9,29.83,SW,221,0.0,0.0,1,0.00,,,0.01,WeatherCatV1.01B143,2013-08-13 14:31:00,
2013-08-13 10:36:00,69.4,-99.9,29.83,SW,220,0.0,0.0,1,0.00,,,0.02,WeatherCatV1.01B143,2013-08-13 14:36:00,
2013-08-13 10:41:00,69.5,-99.9,29.83,SSW,212,0.0,0.0,1,0.00,,,0.02,WeatherCatV1.01B143,2013-08-13 14:41:00,
2013-08-13 10:46:00,69.4,-99.9,29.83,SSW,204,0.0,0.0,1,0.00,,,0.02,WeatherCatV1.01B143,2013-08-13 14:46:00,
2013-08-13 10:51:00,69.3,-99.9,29.83,SSW,204,0.0,0.0,1,0.04,,,0.03,WeatherCatV1.01B143,2013-08-13 14:51:00,
2013-08-13 10:56:00,69.5,-99.9,29.83,SSW,204,0.0,0.0,1,0.04,,,0.03,WeatherCatV1.01B143,2013-08-13 14:56:00,
2013-08-13 11:01:00,69.7,-99.9,29.82,South,188,0.0,0.0,1,0.04,,,0.03,WeatherCatV1.01B143,2013-08-13 15:01:00,
2013-08-13 11:06:00,69.7,-99.9,29.83,SE,136,0.0,0.0,1,0.00,,,0.03,WeatherCatV1.01B143,2013-08-13 15:06:00,
2013-08-13 11:11:00,69.6,-99.9,29.83,SE,136,0.0,0.0,1,0.00,,,0.03,WeatherCatV1.01B143,2013-08-13 15:11:00,
2013-08-13 11:16:00,69.5,-99.9,29.83,SE,136,0.0,0.0,1,0.00,,,0.03,WeatherCatV1.01B143,2013-08-13 15:16:00,
2013-08-13 11:21:00,69.6,-99.9,29.83,SE,136,0.0,0.0,1,0.00,,,0.03,WeatherCatV1.01B143,2013-08-13 15:21:00,
2013-08-13 11:26:00,69.6,-99.9,29.83,SE,136,0.0,0.0,1,0.00,,,0.03,WeatherCatV1.01B143,2013-08-13 15:26:00,
2013-08-13 11:31:00,69.6,-99.9,29.83,SE,134,0.0,0.0,1,0.00,,,0.03,WeatherCatV1.01B143,2013-08-13 15:31:00,
2013-08-13 11:36:00,69.5,-99.9,29.83,SE,129,0.0,0.0,1,0.00,,,0.03,WeatherCatV1.01B143,2013-08-13 15:36:00,
2013-08-13 11:41:00,69.4,-99.9,29.82,ENE,58,0.0,0.0,1,0.00,,,0.03,WeatherCatV1.01B143,2013-08-13 15:41:00,
2013-08-13 11:46:00,69.2,-99.9,29.82,East,98,1.0,1.0,1,0.00,,,0.04,WeatherCatV1.01B143,2013-08-13 15:46:00,
2013-08-13 11:51:00,69.0,-99.9,29.82,ENE,65,0.0,1.0,1,0.00,,,0.04,WeatherCatV1.01B143,2013-08-13 15:51:00,
2013-08-13 11:56:00,69.0,-99.9,29.82,East,88,0.0,2.0,1,0.00,,,0.04,WeatherCatV1.01B143,2013-08-13 15:56:00,
2013-08-13 12:01:00,69.0,-99.9,29.82,ENE,78,1.0,1.0,1,0.00,,,0.04,WeatherCatV1.01B143,2013-08-13 16:01:00,
2013-08-13 12:06:00,69.0,-99.9,29.82,East,84,2.0,2.0,1,0.00,,,0.05,WeatherCatV1.01B143,2013-08-13 16:06:00,
2013-08-13 12:11:00,69.1,-99.9,29.81,ENE,78,1.0,2.0,1,0.00,,,0.05,WeatherCatV1.01B143,2013-08-13 16:11:00,
2013-08-13 12:16:00,69.1,-99.9,29.82,East,86,2.0,2.0,1,0.00,,,0.05,WeatherCatV1.01B143,2013-08-13 16:16:00,
2013-08-13 12:21:00,69.0,-99.9,29.82,East,89,2.0,2.0,1,0.04,,,0.06,WeatherCatV1.01B143,2013-08-13 16:21:00,
2013-08-13 12:26:00,68.9,-99.9,29.82,ENE,67,1.0,3.0,1,0.04,,,0.06,WeatherCatV1.01B143,2013-08-13 16:26:00,
2013-08-13 12:31:00,68.9,-99.9,29.81,East,85,3.0,4.0,1,0.04,,,0.06,WeatherCatV1.01B143,2013-08-13 16:31:00,
2013-08-13 12:36:00,69.0,-99.9,29.81,East,93,3.0,3.0,1,0.00,,,0.06,WeatherCatV1.01B143,2013-08-13 16:36:00,
2013-08-13 12:41:00,68.9,-99.9,29.81,East,89,4.0,5.0,1,0.00,,,0.07,WeatherCatV1.01B143,2013-08-13 16:41:00,
2013-08-13 12:46:00,68.1,-99.9,29.80,East,91,6.0,6.0,1,0.00,,,0.07,WeatherCatV1.01B143,2013-08-13 16:46:00,
2013-08-13 12:51:00,69.8,-99.9,29.79,East,96,5.0,5.0,1,0.00,,,0.07,WeatherCatV1.01B143,2013-08-13 16:51:00,
2013-08-13 12:56:00,69.8,-99.9,29.79,East,96,5.0,5.0,1,0.00,,,0.07,WeatherCatV1.01B143,2013-08-13 16:56:00,
2013-08-13 13:01:00,-999.0,-99.9,29.78,North,-999,-999.0,0.0,-999,0.00,,,0.07,WeatherCatV1.01B143,2013-08-13 17:01:00,
2013-08-13 13:06:00,-999.0,-99.9,29.78,North,-999,-999.0,0.0,-999,0.00,,,0.07,WeatherCatV1.01B143,2013-08-13 17:06:00,
2013-08-13 13:12:00,68.8,-99.9,29.78,East,92,2.0,4.0,-999,0.00,,,0.07,WeatherCatV1.01B143,2013-08-13 17:12:00,
2013-08-13 13:17:00,68.9,-99.9,29.78,ESE,102,3.0,5.0,1,0.00,,,0.08,WeatherCatV1.01B143,2013-08-13 17:17:00,
2013-08-13 13:22:00,68.1,-99.9,29.78,East,81,1.0,5.0,1,0.00,,,0.08,WeatherCatV1.01B143,2013-08-13 17:22:00,
2013-08-13 13:27:00,68.0,-99.9,29.77,SSE,150,3.0,3.0,1,0.00,,,0.08,WeatherCatV1.01B143,2013-08-13 17:27:00,
2013-08-13 13:32:00,68.0,-99.9,29.76,SSE,150,3.0,3.0,1,0.00,,,0.08,WeatherCatV1.01B143,2013-08-13 17:32:00,
2013-08-13 13:37:00,-999.0,-99.9,29.75,North,-999,-999.0,0.0,-999,0.00,,,0.08,WeatherCatV1.01B143,2013-08-13 17:37:00,
2013-08-13 13:42:00,-999.0,-99.9,29.73,North,-999,-999.0,0.0,-999,0.00,,,0.08,WeatherCatV1.01B143,2013-08-13 17:42:00,
2013-08-13 13:47:00,-999.0,-99.9,29.73,North,-999,-999.0,0.0,-999,0.00,,,0.08,WeatherCatV1.01B143,2013-08-13 17:47:00,
2013-08-13 13:52:00,-999.0,-99.9,29.73,North,-999,-999.0,0.0,-999,0.00,,,0.08,WeatherCatV1.01B143,2013-08-13 17:52:00,
2013-08-13 13:57:00,66.9,-99.9,29.74,East,89,9.0,11.0,1,0.00,,,0.08,WeatherCatV1.01B143,2013-08-13 17:57:00,
2013-08-13 14:02:00,65.7,-99.9,29.74,East,91,5.0,11.0,1,0.23,,,0.09,WeatherCatV1.01B143,2013-08-13 18:02:00,
2013-08-13 14:07:00,65.7,-99.9,29.73,ESE,105,9.0,9.0,1,0.23,,,0.09,WeatherCatV1.01B143,2013-08-13 18:07:00,
2013-08-13 14:12:00,65.7,-99.9,29.71,ESE,105,9.0,9.0,1,0.23,,,0.09,WeatherCatV1.01B143,2013-08-13 18:12:00,
2013-08-13 14:17:00,-999.0,-99.9,29.71,North,-999,-999.0,0.0,-999,0.00,,,0.09,WeatherCatV1.01B143,2013-08-13 18:17:00,
2013-08-13 14:22:00,-999.0,-99.9,29.71,North,-999,-999.0,0.0,-999,0.00,,,0.09,WeatherCatV1.01B143,2013-08-13 18:22:00,
2013-08-13 14:27:00,-999.0,-99.9,29.72,North,-999,-999.0,0.0,-999,0.00,,,0.09,WeatherCatV1.01B143,2013-08-13 18:27:00,
2013-08-13 14:32:00,68.3,-99.9,29.71,ENE,78,7.0,11.0,1,0.00,,,0.09,WeatherCatV1.01B143,2013-08-13 18:32:00,
2013-08-13 14:37:00,68.5,-99.9,29.71,ENE,65,6.0,10.0,1,0.00,,,0.09,WeatherCatV1.01B143,2013-08-13 18:37:00,
2013-08-13 14:42:00,68.5,-99.9,29.72,East,81,6.0,9.0,1,0.00,,,0.09,WeatherCatV1.01B143,2013-08-13 18:42:00,
2013-08-13 14:47:00,68.8,-99.9,29.72,ENE,76,4.0,9.0,1,0.00,,,0.09,WeatherCatV1.01B143,2013-08-13 18:47:00,
2013-08-13 14:52:00,68.9,-99.9,29.72,East,96,7.0,10.0,1,0.00,,,0.09,WeatherCatV1.01B143,2013-08-13 18:52:00,
2013-08-13 14:57:00,68.9,-99.9,29.72,East,98,5.0,9.0,1,0.00,,,0.09,WeatherCatV1.01B143,2013-08-13 18:57:00,
2013-08-13 15:02:00,68.9,-99.9,29.73,ENE,78,7.0,10.0,1,0.00,,,0.09,WeatherCatV1.01B143,2013-08-13 19:02:00,
2013-08-13 15:07:00,68.9,-99.9,29.73,East,92,9.0,10.0,1,0.00,,,0.09,WeatherCatV1.01B143,2013-08-13 19:07:00,
2013-08-13 15:12:00,68.9,-99.9,29.73,NE,55,3.0,8.0,1,0.00,,,0.09,WeatherCatV1.01B143,2013-08-13 19:12:00,
2013-08-13 15:17:00,69.0,-99.9,29.73,ENE,58,4.0,5.0,1,0.00,,,0.09,WeatherCatV1.01B143,2013-08-13 19:17:00,
2013-08-13 15:22:00,68.9,-99.9,29.73,East,88,3.0,5.0,1,0.00,,,0.10,WeatherCatV1.01B143,2013-08-13 19:22:00,
2013-08-13 15:25:00,69.0,-99.9,29.72,ENE,74,6.0,6.0,1,0.00,,,0.10,WeatherCatV1.01B143,2013-08-13 19:25:00,
2013-08-13 15:30:00,69.0,-99.9,29.72,NE,43,2.0,6.0,1,0.10,,,0.11,WeatherCatV1.01B143,2013-08-13 19:30:00,
2013-08-13 15:35:00,69.0,-99.9,29.72,ENE,72,4.0,5.0,1,0.08,,,0.12,WeatherCatV1.01B143,2013-08-13 19:35:00,
2013-08-13 15:40:00,69.0,-99.9,29.71,East,81,5.0,5.0,1,0.17,,,0.13,WeatherCatV1.01B143,2013-08-13 19:40:00,
2013-08-13 15:45:00,68.9,-99.9,29.71,East,79,4.0,6.0,1,0.18,,,0.15,WeatherCatV1.01B143,2013-08-13 19:45:00,
2013-08-13 15:50:00,68.7,-99.9,29.71,ENE,60,3.0,4.0,1,0.12,,,0.16,WeatherCatV1.01B143,2013-08-13 19:50:00,
2013-08-13 15:56:00,68.6,-99.9,29.70,NE,50,2.0,2.0,1,0.11,,,0.17,WeatherCatV1.01B143,2013-08-13 19:56:00,
2013-08-13 16:01:00,68.6,-99.9,29.70,NE,50,7.0,7.0,1,0.11,,,0.18,WeatherCatV1.01B143,2013-08-13 20:01:00,
2013-08-13 16:07:00,68.6,-99.9,29.69,ENE,69,7.0,7.0,1,0.09,,,0.18,WeatherCatV1.01B143,2013-08-13 20:07:00,
2013-08-13 16:11:00,68.8,-99.9,29.69,ENE,67,6.0,9.0,1,0.08,,,0.19,WeatherCatV1.01B143,2013-08-13 20:11:00,
2013-08-13 16:16:00,68.9,-99.9,29.69,ESE,105,10.0,10.0,1,0.06,,,0.19,WeatherCatV1.01B143,2013-08-13 20:16:00,
2013-08-13 16:21:00,68.9,-99.9,29.69,ENE,69,6.0,9.0,1,0.04,,,0.19,WeatherCatV1.01B143,2013-08-13 20:21:00,
2013-08-13 16:26:00,68.8,-99.9,29.70,NE,35,3.0,7.0,1,0.00,,,0.19,WeatherCatV1.01B143,2013-08-13 20:26:00,
2013-08-13 16:31:00,69.0,-99.9,29.69,NNE,27,3.0,6.0,1,0.00,,,0.19,WeatherCatV1.01B143,2013-08-13 20:31:00,
2013-08-13 16:36:00,69.0,-99.9,29.69,NE,39,5.0,8.0,1,0.00,,,0.19,WeatherCatV1.01B143,2013-08-13 20:36:00,
2013-08-13 16:41:00,69.2,-99.9,29.69,NNE,31,3.0,7.0,1,0.00,,,0.19,WeatherCatV1.01B143,2013-08-13 20:41:00,
2013-08-13 16:46:00,69.5,-99.9,29.69,NNE,26,9.0,9.0,1,0.00,,,0.19,WeatherCatV1.01B143,2013-08-13 20:46:00,
2013-08-13 16:51:00,69.3,-99.9,29.69,ENE,62,5.0,5.0,1,0.00,,,0.19,WeatherCatV1.01B143,2013-08-13 20:51:00,
2013-08-13 16:57:00,69.2,-99.9,29.69,ENE,76,6.0,8.0,1,0.00,,,0.19,WeatherCatV1.01B143,2013-08-13 20:57:00,
2013-08-13 17:02:00,69.1,-99.9,29.69,ENE,68,0.0,7.0,1,0.00,,,0.19,WeatherCatV1.01B143,2013-08-13 21:02:00,
2013-08-13 17:07:00,69.4,-99.9,29.69,NE,50,7.0,7.0,1,0.00,,,0.19,WeatherCatV1.01B143,2013-08-13 21:07:00,
2013-08-13 17:12:00,69.4,-99.9,29.69,ENE,71,3.0,5.0,1,0.00,,,0.19,WeatherCatV1.01B143,2013-08-13 21:12:00,
2013-08-13 17:17:00,69.4,-99.9,29.69,ENE,75,5.0,5.0,1,0.00,,,0.19,WeatherCatV1.01B143,2013-08-13 21:17:00,
2013-08-13 17:22:00,69.5,-99.9,29.69,NE,40,1.0,5.0,1,0.00,,,0.19,WeatherCatV1.01B143,2013-08-13 21:22:00,
2013-08-13 17:27:00,69.9,-8.7,29.68,East,79,5.0,9.0,4,0.00,,,0.19,WeatherCatV1.01B143,2013-08-13 21:27:00,
2013-08-13 17:32:00,69.9,5.9,29.68,ENE,78,4.0,6.0,8,0.00,,,0.19,WeatherCatV1.01B143,2013-08-13 21:32:00,
2013-08-13 17:37:00,69.8,5.9,29.69,NNE,24,3.0,4.0,8,0.00,,,0.19,WeatherCatV1.01B143,2013-08-13 21:37:00,
2013-08-13 17:42:00,69.9,8.5,29.69,NNE,31,2.0,5.0,9,0.00,,,0.19,WeatherCatV1.01B143,2013-08-13 21:42:00,
2013-08-13 17:47:00,69.9,5.9,29.69,NE,51,1.0,4.0,8,0.00,,,0.19,WeatherCatV1.01B143,2013-08-13 21:47:00,
2013-08-13 17:52:00,70.1,3.2,29.69,NNE,24,1.0,6.0,7,0.00,,,0.19,WeatherCatV1.01B143,2013-08-13 21:52:00,
2013-08-13 17:57:00,70.8,13.7,29.68,NNE,16,3.0,5.0,11,0.00,,,0.19,WeatherCatV1.01B143,2013-08-13 21:57:00,
2013-08-13 18:02:00,71.2,25.5,29.68,NE,36,3.0,7.0,18,0.00,,,0.19,WeatherCatV1.01B143,2013-08-13 22:02:00,
2013-08-13 18:07:00,71.2,31.5,29.68,NNE,27,5.0,6.0,23,0.00,,,0.19,WeatherCatV1.01B143,2013-08-13 22:07:00,
2013-08-13 18:12:00,71.4,27.0,29.68,NNE,25,1.0,6.0,19,0.00,,,0.19,WeatherCatV1.01B143,2013-08-13 22:12:00,
2013-08-13 18:17:00,70.9,32.3,29.68,NNE,27,5.0,6.0,24,0.00,,,0.19,WeatherCatV1.01B143,2013-08-13 22:17:00,
2013-08-13 18:22:00,70.5,30.9,29.69,North,350,4.0,5.0,23,0.00,,,0.19,WeatherCatV1.01B143,2013-08-13 22:22:00,
2013-08-13 18:27:00,70.3,24.8,29.68,NNE,15,2.0,3.0,18,0.00,,,0.19,WeatherCatV1.01B143,2013-08-13 22:27:00,
2013-08-13 18:32:00,70.1,27.2,29.69,NW,319,2.0,4.0,20,0.00,,,0.19,WeatherCatV1.01B143,2013-08-13 22:32:00,
2013-08-13 18:37:00,70.3,27.3,29.68,North,358,3.0,5.0,20,0.00,,,0.19,WeatherCatV1.01B143,2013-08-13 22:37:00,
2013-08-13 18:42:00,70.2,28.4,29.69,NNE,13,2.0,2.0,21,0.00,,,0.19,WeatherCatV1.01B143,2013-08-13 22:42:00,
2013-08-13 18:47:00,70.1,24.6,29.69,NNE,17,3.0,3.0,18,0.00,,,0.19,WeatherCatV1.01B143,2013-08-13 22:47:00,
2013-08-13 18:52:00,70.7,25.1,29.69,NNE,22,1.0,1.0,18,0.00,,,0.19,WeatherCatV1.01B143,2013-08-13 22:52:00,
2013-08-13 18:58:00,70.7,25.1,29.69,NNE,22,1.0,1.0,18,0.00,,,0.19,WeatherCatV1.01B143,2013-08-13 22:58:00,
2013-08-13 19:03:00,-999.0,-99.9,29.69,North,-999,-999.0,0.0,-999,0.00,,,0.19,WeatherCatV1.01B143,2013-08-13 23:03:00,
2013-08-13 19:07:00,-999.0,-99.9,29.69,North,-999,-999.0,0.0,-999,0.00,,,0.19,WeatherCatV1.01B143,2013-08-13 23:07:00,
2013-08-13 19:12:00,-999.0,-99.9,29.69,North,-999,-999.0,0.0,-999,0.00,,,0.19,WeatherCatV1.01B143,2013-08-13 23:12:00,
2013-08-13 19:17:00,-999.0,-99.9,29.69,North,-999,-999.0,0.0,-999,0.00,,,0.19,WeatherCatV1.01B143,2013-08-13 23:17:00,
2013-08-13 19:23:00,-999.0,-99.9,29.69,North,-999,-999.0,0.0,-999,0.00,,,0.19,WeatherCatV1.01B143,2013-08-13 23:23:00,
2013-08-13 19:28:00,-999.0,-99.9,29.69,North,-999,-999.0,0.0,-999,0.00,,,0.19,WeatherCatV1.01B143,2013-08-13 23:28:00,
2013-08-13 19:33:00,-999.0,-99.9,29.69,North,-999,-999.0,0.0,-999,0.00,,,0.19,WeatherCatV1.01B143,2013-08-13 23:33:00,
2013-08-13 19:38:00,-999.0,-99.9,29.69,North,-999,-999.0,0.0,-999,0.00,,,0.19,WeatherCatV1.01B143,2013-08-13 23:38:00,
2013-08-13 19:43:00,-999.0,-99.9,29.69,North,-999,-999.0,0.0,-999,0.00,,,0.19,WeatherCatV1.01B143,2013-08-13 23:43:00,
2013-08-13 19:48:00,-999.0,-99.9,29.69,North,-999,-999.0,0.0,-999,0.00,,,0.19,WeatherCatV1.01B143,2013-08-13 23:48:00,
2013-08-13 19:53:00,-999.0,-99.9,29.69,North,-999,-999.0,0.0,-999,0.00,,,0.19,WeatherCatV1.01B143,2013-08-13 23:53:00,
2013-08-13 19:58:00,-999.0,-99.9,29.69,North,-999,-999.0,0.0,-999,0.00,,,0.19,WeatherCatV1.01B143,2013-08-13 23:58:00,
2013-08-13 20:03:00,-999.0,-99.9,29.69,North,-999,-999.0,0.0,-999,0.00,,,0.19,WeatherCatV1.01B143,2013-08-14 00:03:00,
2013-08-13 20:08:00,-999.0,-99.9,29.69,North,-999,-999.0,0.0,-999,0.00,,,0.19,WeatherCatV1.01B143,2013-08-14 00:08:00,
2013-08-13 20:13:00,-999.0,-99.9,29.69,North,-999,-999.0,0.0,-999,0.00,,,0.19,WeatherCatV1.01B143,2013-08-14 00:13:00,
2013-08-13 20:18:00,-999.0,-99.9,29.69,North,-999,-999.0,0.0,-999,0.00,,,0.19,WeatherCatV1.01B143,2013-08-14 00:18:00,
2013-08-13 20:23:00,-999.0,-99.9,29.69,North,-999,-999.0,0.0,-999,0.00,,,0.19,WeatherCatV1.01B143,2013-08-14 00:23:00,
2013-08-13 20:28:00,-999.0,-99.9,29.69,North,-999,-999.0,0.0,-999,0.00,,,0.19,WeatherCatV1.01B143,2013-08-14 00:28:00,
2013-08-13 20:33:00,-999.0,-99.9,29.70,North,-999,-999.0,0.0,-999,0.00,,,0.19,WeatherCatV1.01B143,2013-08-14 00:33:00,
2013-08-13 20:38:00,-999.0,-99.9,29.70,North,-999,-999.0,0.0,-999,0.00,,,0.19,WeatherCatV1.01B143,2013-08-14 00:38:00,
2013-08-13 20:43:00,-999.0,-99.9,29.70,North,-999,-999.0,0.0,-999,0.00,,,0.19,WeatherCatV1.01B143,2013-08-14 00:43:00,
2013-08-13 20:48:00,-999.0,-99.9,29.70,North,-999,-999.0,0.0,-999,0.00,,,0.19,WeatherCatV1.01B143,2013-08-14 00:48:00,
2013-08-13 20:53:00,-999.0,-99.9,29.71,North,-999,-999.0,0.0,-999,0.00,,,0.19,WeatherCatV1.01B143,2013-08-14 00:53:00,
2013-08-13 20:58:00,-999.0,-99.9,29.70,North,-999,-999.0,0.0,-999,0.00,,,0.19,WeatherCatV1.01B143,2013-08-14 00:58:00,
2013-08-13 21:03:00,-999.0,-99.9,29.71,North,-999,-999.0,0.0,-999,0.00,,,0.19,WeatherCatV1.01B143,2013-08-14 01:03:00,
2013-08-13 21:08:00,-999.0,-99.9,29.71,North,-999,-999.0,0.0,-999,0.00,,,0.19,WeatherCatV1.01B143,2013-08-14 01:08:00,
2013-08-13 21:13:00,-999.0,-99.9,29.71,North,-999,-999.0,0.0,-999,0.00,,,0.19,WeatherCatV1.01B143,2013-08-14 01:13:00,
2013-08-13 21:18:00,-999.0,-99.9,29.71,North,-999,-999.0,0.0,-999,0.00,,,0.19,WeatherCatV1.01B143,2013-08-14 01:18:00,
2013-08-13 21:23:00,-999.0,-99.9,29.71,North,-999,-999.0,0.0,-999,0.00,,,0.19,WeatherCatV1.01B143,2013-08-14 01:23:00,
2013-08-13 21:28:00,-999.0,-99.9,29.72,North,-999,-999.0,0.0,-999,0.00,,,0.19,WeatherCatV1.01B143,2013-08-14 01:28:00,
2013-08-13 21:33:00,-999.0,-99.9,29.72,North,-999,-999.0,0.0,-999,0.00,,,0.19,WeatherCatV1.01B143,2013-08-14 01:33:00,
2013-08-13 21:38:00,-999.0,-99.9,29.71,North,-999,-999.0,0.0,-999,0.00,,,0.19,WeatherCatV1.01B143,2013-08-14 01:38:00,
2013-08-13 21:43:00,-999.0,-99.9,29.70,North,-999,-999.0,0.0,-999,0.00,,,0.19,WeatherCatV1.01B143,2013-08-14 01:43:00,
2013-08-13 21:48:00,-999.0,-99.9,29.70,North,-999,-999.0,0.0,-999,0.00,,,0.19,WeatherCatV1.01B143,2013-08-14 01:48:00,
2013-08-13 21:53:00,-999.0,-99.9,29.71,North,-999,-999.0,0.0,-999,0.00,,,0.19,WeatherCatV1.01B143,2013-08-14 01:53:00,
2013-08-13 21:58:00,-999.0,-99.9,29.71,North,-999,-999.0,0.0,-999,0.00,,,0.19,WeatherCatV1.01B143,2013-08-14 01:58:00,
2013-08-13 22:03:00,-999.0,-99.9,29.70,North,-999,-999.0,0.0,-999,0.00,,,0.19,WeatherCatV1.01B143,2013-08-14 02:03:00,
2013-08-13 22:08:00,-999.0,-99.9,29.70,North,-999,-999.0,0.0,-999,0.00,,,0.19,WeatherCatV1.01B143,2013-08-14 02:08:00,
2013-08-13 22:13:00,-999.0,-99.9,29.71,North,-999,-999.0,0.0,-999,0.00,,,0.19,WeatherCatV1.01B143,2013-08-14 02:13:00,
2013-08-13 22:18:00,-999.0,-99.9,29.71,North,-999,-999.0,0.0,-999,0.00,,,0.19,WeatherCatV1.01B143,2013-08-14 02:18:00,
2013-08-13 22:23:00,-999.0,-99.9,29.70,North,-999,-999.0,0.0,-999,0.00,,,0.19,WeatherCatV1.01B143,2013-08-14 02:23:00,
2013-08-13 22:28:00,-999.0,-99.9,29.70,North,-999,-999.0,0.0,-999,0.00,,,0.19,WeatherCatV1.01B143,2013-08-14 02:28:00,
2013-08-13 22:33:00,-999.0,-99.9,29.70,North,-999,-999.0,0.0,-999,0.00,,,0.19,WeatherCatV1.01B143,2013-08-14 02:33:00,
2013-08-13 22:38:00,-999.0,-99.9,29.70,North,-999,-999.0,0.0,-999,0.00,,,0.19,WeatherCatV1.01B143,2013-08-14 02:38:00,
2013-08-13 22:43:00,-999.0,-99.9,29.71,North,-999,-999.0,0.0,-999,0.00,,,0.19,WeatherCatV1.01B143,2013-08-14 02:43:00,
2013-08-13 22:48:00,-999.0,-99.9,29.70,North,-999,-999.0,0.0,-999,0.00,,,0.19,WeatherCatV1.01B143,2013-08-14 02:48:00,
2013-08-13 22:53:00,-999.0,-99.9,29.70,North,-999,-999.0,0.0,-999,0.00,,,0.19,WeatherCatV1.01B143,2013-08-14 02:53:00,
2013-08-13 22:58:00,-999.0,-99.9,29.70,North,-999,-999.0,0.0,-999,0.00,,,0.19,WeatherCatV1.01B143,2013-08-14 02:58:00,
2013-08-13 23:03:00,-999.0,-99.9,29.71,North,-999,-999.0,0.0,-999,0.00,,,0.19,WeatherCatV1.01B143,2013-08-14 03:03:00,
2013-08-13 23:08:00,-999.0,-99.9,29.71,North,-999,-999.0,0.0,-999,0.00,,,0.19,WeatherCatV1.01B143,2013-08-14 03:08:00,
2013-08-13 23:13:00,-999.0,-99.9,29.70,North,-999,-999.0,0.0,-999,0.00,,,0.19,WeatherCatV1.01B143,2013-08-14 03:13:00,
2013-08-13 23:18:00,-999.0,-99.9,29.71,North,-999,-999.0,0.0,-999,0.00,,,0.19,WeatherCatV1.01B143,2013-08-14 03:18:00,
2013-08-13 23:23:00,-999.0,-99.9,29.70,North,-999,-999.0,0.0,-999,0.00,,,0.19,WeatherCatV1.01B143,2013-08-14 03:23:00,
2013-08-13 23:28:00,-999.0,-99.9,29.71,North,-999,-999.0,0.0,-999,0.00,,,0.19,WeatherCatV1.01B143,2013-08-14 03:28:00,
2013-08-13 23:33:00,-999.0,-99.9,29.71,North,-999,-999.0,0.0,-999,0.00,,,0.19,WeatherCatV1.01B143,2013-08-14 03:33:00,
2013-08-13 23:38:00,-999.0,-99.9,29.70,North,-999,-999.0,0.0,-999,0.00,,,0.19,WeatherCatV1.01B143,2013-08-14 03:38:00,
2013-08-13 23:43:00,-999.0,-99.9,29.70,North,-999,-999.0,0.0,-999,0.00,,,0.19,WeatherCatV1.01B143,2013-08-14 03:43:00,
2013-08-13 23:49:00,-999.0,-99.9,29.70,North,-999,-999.0,0.0,-999,0.00,,,0.19,WeatherCatV1.01B143,2013-08-14 03:49:00,
2013-08-13 23:54:00,-999.0,-99.9,29.70,North,-999,-999.0,0.0,-999,0.00,,,0.19,WeatherCatV1.01B143,2013-08-14 03:54:00,
2013-08-13 23:59:00,-999.0,-99.9,29.70,North,-999,-999.0,0.0,-999,0.00,,,0.00,WeatherCatV1.01B143,2013-08-14 03:59:00,